This demonstration page uses our WeatherBlox Daily Observations layout. Learn more.

Left ArrowRight Arrow

41.86663, -103.66717

Hourly Observations for May 19, 2018

Temp ( °F °C ) Dew Point ( °F °C ) Humidity (%) Winds ( mph kmh ) Pressure ( in mb ) Visibility ( mi km ) Precip ( " mm )
12:05 am 00:05 Cloudy with Nearby Thunderstorms 54 12 N/A N/A N 20 31 29.91 1013 2 3 0.22 5.59
12:15 am 00:15 Cloudy with Nearby Thunderstorms 54 12 N/A N/A N 28 44 29.91 1013 3 4 0.32 8.13
12:24 am 00:24 Cloudy with Heavy Rain 54 12 N/A N/A N 31 50 29.91 1013 3 4 0.00 0.00
12:42 am 00:42 Cloudy with Nearby Thunderstorms 52 11 N/A N/A N 23 37 29.97 1015 3 4 0.00 0.00
12:51 am 00:51 Cloudy with Heavy Rain 54 12 N/A N/A N 22 35 29.94 1014 3 5 0.67 17.02
12:53 am 00:53 Cloudy with Heavy Rain 54 12 N/A N/A N 21 33 29.94 1014 3 5 0.70 17.78
1:10 am 01:10 Cloudy with Nearby Thunderstorms 54 12 N/A N/A NW 12 19 29.94 1014 5 8 0.00 0.00
1:19 am 01:19 Cloudy with Nearby Thunderstorms 54 12 N/A N/A NW 16 26 29.94 1014 6 10 0.12 3.05
1:34 am 01:34 Cloudy with Heavy Rain 52 11 N/A N/A NNW 15 24 29.97 1015 4 6 0.00 0.00
1:53 am 01:53 Cloudy with Heavy Rain 52 11 N/A N/A NW 17 28 29.95 1014 3 4 0.35 8.89
2:10 am 02:10 Cloudy with Heavy Rain 52 11 N/A N/A NNW 18 30 29.97 1015 2 3 0.21 5.33
2:17 am 02:17 Cloudy with Heavy Rain 52 11 N/A N/A NNW 13 20 29.97 1015 3 4 0.28 7.11
2:26 am 02:26 Cloudy with Heavy Rain 52 11 N/A N/A NNW 14 22 29.97 1015 3 5 0.00 0.00
2:53 am 02:53 Cloudy with Heavy Rain 50 10 N/A N/A NNW 15 24 29.96 1015 3 4 0.51 12.95
2:59 am 02:59 Cloudy with Rain 50 10 N/A N/A NNW 15 24 29.97 1015 3 5 0.04 1.02
3:53 am 03:53 Cloudy with Rain 48 9 N/A N/A N 16 26 29.95 1014 4 6 0.27 6.86
4:53 am 04:53 Cloudy with Light Rain 48 9 N/A N/A N 17 28 29.95 1014 10 16 0.05 1.27
5:53 am 05:53 Cloudy with Light Rain 46 8 N/A N/A N 23 37 29.95 1014 10 16 0.03 0.76
6:15 am 06:15 Cloudy with Light Rain 46 8 N/A N/A N 25 41 30.03 1017 8 13 0.01 0.25
6:53 am 06:53 Cloudy with Rain 46 8 N/A N/A NNE 32 52 29.96 1014 3 5 0.08 2.03
7:53 am 07:53 Cloudy with Light Rain 45 7 N/A N/A NNE 22 35 29.99 1016 4 6 0.10 2.54
8:53 am 08:53 Cloudy with Rain 45 7 N/A N/A NNE 25 41 30.03 1017 4 6 0.09 2.29
9:51 am 09:51 Cloudy with Rain 45 7 N/A N/A NNE 16 26 30.12 1020 3 5 0.11 2.79
9:53 am 09:53 Cloudy with Rain 45 7 N/A N/A NNE 20 31 30.06 1018 3 5 0.11 2.79
10:53 am 10:53 Cloudy with Rain 45 7 N/A N/A N 17 28 30.10 1019 4 6 0.14 3.56
11:43 am 11:43 Cloudy with Rain 45 7 N/A N/A N 18 30 30.12 1020 4 6 0.12 3.05
11:53 am 11:53 Cloudy with Rain 45 7 N/A N/A N 16 26 30.13 1020 4 6 0.15 3.81
12:53 pm 12:53 Cloudy with Rain 45 7 N/A N/A N 17 28 30.13 1020 5 8 0.15 3.81
1:53 pm 13:53 Cloudy with Rain 45 7 N/A N/A N 18 30 30.15 1021 4 6 0.16 4.06
2:53 pm 14:53 Cloudy with Rain 45 7 N/A N/A N 20 31 30.17 1022 5 8 0.16 4.06
3:53 pm 15:53 Cloudy with Rain 44 6.7 42 5.6 93 93 N 18 30 30.18 1022 4 6 0.14 3.56
4:53 pm 16:53 Cloudy with Light Rain 45 7.2 42 5.6 90 90 N 16 26 30.19 1022 6 10 0.08 2.03
5:53 pm 17:53 Cloudy with Light Rain 45 7.2 42 5.6 90 90 N 15 24 30.21 1023 6 10 0.06 1.52
6:53 pm 18:53 Cloudy with Light Rain 45 7.2 42 5.6 90 90 NNE 15 24 30.21 1023 10 16 0.02 0.51
7:53 pm 19:53 Cloudy 45 7.2 42 5.6 90 90 NNE 10 17 30.23 1024 10 16 0.00 0.03
8:53 pm 20:53 Cloudy 44 6.7 41 5 89 89 N 7 11 30.26 1025 10 16 0.00 0.00
9:53 pm 21:53 Cloudy 44 6.7 42 5.6 93 93 W 3 6 30.27 1025 10 16 0.00 0.00
10:53 pm 22:53 Cloudy 44 6.7 42 5.6 93 93 W 5 7 30.28 1025 10 16 0.00 0.00
11:53 pm 23:53 Cloudy 44 6.7 42 5.6 93 93 WNW 5 7 30.29 1026 10 16 0.00 0.00

Powered by AerisWeather